Powrót do katalogu

PELICAN-4 300B

AktywnyŁącznośćSSO
NORAD 65316·PAYLOAD·🇺🇸 United States

Wystrzelony Aug 26, 2025 z Vandenberg Space Force Base

Loading…

Następne Przeloty (najbliższe 24 godziny)

TLE

ŚwieżeSource: CelesTrak SupGP

Epoka: Sep 14, 2026, 20:44 UTC

1 65316C 25188B   26257.86442130 -.00003235  00000+0 -78565-4 0  2571
2 65316  97.1935 332.7931 0002674 110.0968 125.6373 15.41061437    19

Śledź PELICAN-4 300B w czasie rzeczywistym z AllMySat

Download on the App Store